Terminal Aerodrome Forecast
Issued by NWS

Home | Current Version | Previous Version | Text Only | Print | Product List | Glossary On
Versions: 1 2 3 4 5 6 7 8 9 10 11 12 13 14 15 16 17 18 19 20 21 22 23 24 25 26 27 28 29 30 31 32 33 34 35 36 37 38 39 40 41 42 43 44 45 46 47 48 49 50
000
FTAK31 PANC 230540
TAFASD
TAF
PASD 230540Z 2306/2406 09011KT P6SM SCT017 BKN030 OVC040
     FM230900 08012G18KT 4SM -RA BR SCT005 OVC012
     FM231200 09018G28KT 3SM -RA BKN005 OVC012 WS015/13040KT
     FM232100 22011KT 4SM -RA BKN005 OVC012
     FM240000 24014KT P6SM -SHRA BKN012 OVC025
      AMD LTD TO CLD VIS AND WIND=

USA.gov is the U.S. government's official web portal to all federal, state and local government web resources and services.